Flag for France Weather past 2 weeks in Bastia, Corsica, France

Now
52 °F

Scattered clouds.


Feels Like: 47 °F
Forecast: 44 / 53 °F
Wind: 14 mph from Southwest

Location: Bastia Airport

Current Time: Feb 1, 2015 at 4:42:19 PM

Latest Report: Feb 1, 2015 at 4:00 PM


Visibility: N/A

Pressure: 29.30 "Hg

Humidity: 41%

Dew point: 28 °F

Location of BastiaLocation

Historic Weather in Bastia — Graph

°F

Bastia temperature yesterday

Maximum temperature yesterday: 57 °F (at 11:34 AM)
Minimum temperature yesterday: 36 °F (at 3:00 AM)
Average temperature yesterday: 46 °F

Past Weeks' High & Low Weather Summary

 TemperatureHumidityPressure
High59 °F (Jan 17, 4:30 PM)94% (Jan 20, 6:00 PM)30.18 "Hg (Jan 20, 6:00 PM)
Low36 °F (Jan 29, 2:30 AM)30% (Jan 30, 10:30 AM)28.91 "Hg (Jan 30, 6:30 AM)
Average48 °F64%29.72 "Hg
* Reported Jan 17 3:00 PM — Feb 1 3:30 PM, Bastia, Weather by CustomWeather, © 2014

Note: Actual official high and low records may vary slightly from our data, if they occured in-between our weather recording intervals... More about our weather records

Advertising

Bastia weather history for previous 24 hours

 ConditionsComfort  
Time TempWeatherWind HumidityBarometerVisibility
3:30 PM
Feb 1
54 °FPassing clouds.16 mph35%29.30 "HgN/A
3:00 PM55 °FPassing clouds.14 mph31%29.27 "HgN/A
2:30 PM55 °FPassing clouds.8 mph33%29.27 "HgN/A
2:00 PM55 °FPassing clouds.14 mph33%29.27 "HgN/A
1:30 PM55 °FPassing clouds.12 mph36%29.27 "HgN/A
12:30 PM55 °FScattered clouds.10 mph38%29.27 "HgN/A
12:00 PM55 °FScattered clouds.7 mph38%29.27 "HgN/A
11:30 AM55 °FScattered clouds.7 mph44%29.27 "HgN/A
11:00 AM54 °FScattered clouds.8 mph38%29.27 "HgN/A
10:30 AM52 °FScattered clouds.13 mph50%29.27 "HgN/A
10:00 AM50 °FScattered clouds.14 mph54%29.24 "HgN/A
9:30 AM45 °FScattered clouds.7 mph61%29.24 "HgN/A
9:00 AM45 °FBroken clouds.3 mph57%29.24 "HgN/A
8:30 AM46 °FBroken clouds.6 mph53%29.21 "HgN/A
8:00 AM43 °FPartly sunny.3 mph61%29.21 "HgN/A
7:30 AM45 °FPassing clouds.8 mph57%29.18 "HgN/A
7:00 AM45 °FPartly cloudy.5 mph57%29.18 "HgN/A
6:30 AM45 °FPartly cloudy.10 mph61%29.18 "HgN/A
6:00 AM45 °FPartly cloudy.14 mph57%29.15 "HgN/A
5:30 AM45 °FPartly cloudy.16 mph61%29.18 "HgN/A
5:00 AM48 °FPartly cloudy.15 mph46%29.18 "HgN/A
4:30 AM48 °FPassing clouds.16 mph43%29.15 "HgN/A
3:30 AM46 °FPassing clouds.7 mph53%29.15 "HgN/A
3:00 AM43 °FPassing clouds.2 mph66%29.15 "HgN/A
2:30 AM43 °FPassing clouds.2 mph66%29.15 "HgN/A
2:00 AM45 °FClear.7 mph61%29.15 "HgN/A
1:30 AM43 °FClear.6 mph71%29.15 "HgN/A
1:00 AM45 °FPassing clouds.6 mph66%29.18 "HgN/A
12:30 AM43 °FPassing clouds.7 mph71%29.18 "HgN/A
12:00 AM45 °FPassing clouds.9 mph66%29.15 "HgN/A
11:30 PM
Jan 31
46 °FPassing clouds.8 mph62%29.15 "HgN/A
11:00 PM46 °FPassing clouds.10 mph66%29.15 "HgN/A
10:30 PM45 °FPassing clouds.13 mph76%29.15 "HgN/A
9:30 PM45 °FThundershowers. Passing clouds.12 mph71%29.15 "HgN/A
9:00 PM45 °FPassing clouds.9 mph76%29.12 "HgN/A
8:30 PM45 °FPassing clouds.8 mph76%29.12 "HgN/A
8:00 PM46 °FPassing clouds.9 mph76%29.15 "HgN/A
7:30 PM45 °FPassing clouds.3 mph76%29.12 "HgN/A
7:00 PM45 °FPassing clouds.7 mph81%29.12 "HgN/A
6:30 PM46 °FPassing clouds.5 mph76%29.12 "HgN/A
6:00 PM46 °FPassing clouds.3 mph76%29.09 "HgN/A
5:30 PM48 °FPartly sunny.6 mph71%29.09 "HgN/A
5:00 PM50 °FPartly sunny.5 mph67%29.09 "HgN/A
4:30 PM50 °FPartly sunny.7 mph67%29.09 "HgN/A
4:00 PM52 °FPartly sunny.6 mph58%29.09 "HgN/A
Weather by CustomWeather, © 2014

See weather overviewHow to use our weather pages